Skip Page Navigation
NASA JPL Caltech
NASA Logo - Jet Propulsion Laboratory + View the NASA Portal
+ Center for Near-Earth Object Studies
JPL Home Earth Solar System Stars & Galaxies Technology
JPL Solar System Dynamics
BODIES ORBITS EPHEMERIDES TOOLS PHYSICAL DATA DISCOVERY FAQ SITE MAP
IMPORTANT: The SSD Announcement email list is now available. Major changes are coming in the near future, including possible hostname and/or URL changes. To be notified of such changes, subscribe to this email list.

Please visit this page for more details.


JPL Small-Body Database Browser
Search: [ help ]  
47897 (2000 GO38)
Classification: Main-belt Asteroid          SPK-ID: 2047897
Ephemeris | Orbit Diagram | Orbital Elements | Mission Design | Physical Parameters | Discovery Circumstances | Close-Approach Data ]

[ show orbit diagram ]
Orbital Elements at Epoch 2458600.5 (2019-Apr-27.0) TDB
Reference: JPL 24 (heliocentric ecliptic J2000)
 Element Value Uncertainty (1-sigma)   Units 
e .09200942446094883 3.9904e-08  
a 2.690569435930251 1.5614e-08 au
q 2.443011690658088 1.1389e-07 au
i 14.5100318567269 4.7464e-06 deg
node 192.5574064268613 1.3722e-05 deg
peri 238.6621343891792 3.0693e-05 deg
M 233.1591560838281 2.9398e-05 deg
tp 2459168.464714695279
(2020-Nov-14.96471470)
0.00013398 TDB
period 1611.998871794256
4.41
1.4032e-05
3.842e-08
d
yr
n .2233252183354802 1.944e-09 deg/d
Q 2.938127181202413 1.7051e-08 au
  Orbit Determination Parameters
   # obs. used (total)      1036  
   data-arc span      10432 days (28.56 yr)  
   first obs. used      1991-04-09  
   last obs. used      2019-10-31  
   planetary ephem.      DE431  
   SB-pert. ephem.      SB431-N16  
   condition code      0  
   norm. resid. RMS      .53408  
   source      ORB  
   producer      Otto Matic  
   solution date      2019-Nov-07 06:34:48  

Additional Information
 Earth MOID = 1.486 au 
 Jupiter MOID = 2.38016 au 
 T_jup = 3.320 
[ show covariance matrix ]

Ephemeris | Orbit Diagram | Orbital Elements | Mission Design | Physical Parameters | Discovery Circumstances | Close-Approach Data ]

Physical Parameter Table
Parameter Symbol Value Units Sigma Reference Notes
absolute magnitude H 14.6   n/a MPO493194  

47897 (2000 GO38)          Discovered 2000-Apr-05 by LINEAR at Socorro
Reference: 20020921/Numbers.arcLast Updated: 2004-04-19

[ show close-approach data ]
Alternate Designations
 2000 GO38 = 1993 SA11 
Ephemeris | Orbit Diagram | Orbital Elements | Mission Design | Physical Parameters | Discovery Circumstances | Close-Approach Data ]
ABOUT SSD CREDITS/AWARDS PRIVACY/COPYRIGHT GLOSSARY LINKS
FirstGov 2020-Jan-29 21:32 UT
(server date/time)  
NASA Home Page
Site Manager:   Ryan S. Park
Webmaster  Alan B. Chamberlin